| time (UTC) | temp F | wind direction | speed MPH | gust MPH | rain 1hr in | rain 24hr in | rain mn in | humidity % | barometer mb |
| 20260509121038 | 75 | 168 | 1.0 | 2.0 | 0.00 | 0.00 | 0.00 | 99 | 1014.4 |
| 20260509120537 | 75 | 175 | 0.0 | 1.0 | 0.00 | 0.00 | 0.00 | 99 | 1014.5 |
| 20260509120034 | 75 | 195 | 0.0 | 1.0 | 0.00 | 0.00 | 0.00 | 99 | 1014.6 |
| 20260509115531 | 75 | 215 | 0.0 | 1.0 | 0.00 | 0.00 | 0.00 | 99 | 1014.6 |
| 20260509115029 | 74 | 142 | 0.0 | 1.0 | 0.00 | 0.00 | 0.00 | 99 | 1014.5 |
| 20260509114527 | 74 | 37 | 0.0 | 0.0 | 0.00 | 0.00 | 0.00 | 99 | 1014.8 |
| 20260509114026 | 74 | 37 | 0.0 | 1.0 | 0.00 | 0.00 | 0.00 | 99 | 1014.5 |
| 20260509113523 | 74 | 195 | 0.0 | 2.0 | 0.00 | 0.00 | 0.00 | 99 | 1014.3 |
| 20260509113021 | 74 | 66 | 0.0 | 1.0 | 0.00 | 0.00 | 0.00 | 99 | 1014.5 |
| 20260509112517 | 74 | 154 | 0.0 | 1.0 | 0.00 | 0.00 | 0.00 | 99 | 1014.5 |
| 20260509112014 | 74 | 89 | 0.0 | 1.0 | 0.00 | 0.00 | 0.00 | 99 | 1014.7 |
| 20260509111511 | 74 | 202 | 0.0 | 1.0 | 0.00 | 0.00 | 0.00 | 99 | 1014.6 |
| 20260509111009 | 74 | 181 | 0.0 | 2.0 | 0.00 | 0.00 | 0.00 | 99 | 1014.3 |
| 20260509110505 | 74 | 208 | 0.0 | 1.0 | 0.00 | 0.00 | 0.00 | 99 | 1014.3 |
| 20260509110002 | 74 | 180 | 0.0 | 2.0 | 0.00 | 0.00 | 0.00 | 99 | 1014.1 |
| 20260509105501 | 74 | 186 | 0.0 | 1.0 | 0.00 | 0.00 | 0.00 | 99 | 1014.1 |
| 20260509104957 | 74 | 123 | 0.0 | 1.0 | 0.00 | 0.00 | 0.00 | 99 | 1013.8 |
| 20260509104454 | 74 | 209 | 0.0 | 2.0 | 0.00 | 0.00 | 0.00 | 99 | 1014.2 |
| 20260509103951 | 74 | 315 | 0.0 | 1.0 | 0.00 | 0.00 | 0.00 | 99 | 1013.8 |
| 20260509103449 | 74 | 321 | 0.0 | 1.0 | 0.00 | 0.00 | 0.00 | 99 | 1014.0 |
| 20260509102947 | 74 | 135 | 0.0 | 0.0 | 0.00 | 0.00 | 0.00 | 99 | 1014.1 |
| 20260509102444 | 74 | 117 | 0.0 | 0.0 | 0.00 | 0.00 | 0.00 | 99 | 1014.2 |
| 20260509101940 | 74 | 117 | 0.0 | 0.0 | 0.00 | 0.00 | 0.00 | 99 | 1013.9 |
| 20260509101437 | 74 | 230 | 0.0 | 0.0 | 0.00 | 0.00 | 0.00 | 99 | 1014.0 |
| 20260509100934 | 74 | 154 | 0.0 | 1.0 | 0.00 | 0.00 | 0.00 | 99 | 1014.2 |
| 20260509100431 | 74 | 329 | 0.0 | 1.0 | 0.00 | 0.00 | 0.00 | 99 | 1014.1 |
| 20260509095927 | 74 | 154 | 0.0 | 0.0 | 0.00 | 0.00 | 0.00 | 99 | 1013.9 |
| 20260509095425 | 74 | 154 | 0.0 | 0.0 | 0.00 | 0.00 | 0.00 | 99 | 1014.1 |
| 20260509094922 | 74 | 154 | 0.0 | 1.0 | 0.00 | 0.00 | 0.00 | 99 | 1014.0 |
| 20260509094418 | 74 | 195 | 0.0 | 0.0 | 0.00 | 0.00 | 0.00 | 99 | 1013.9 |
| 20260509093916 | 74 | 230 | 0.0 | 0.0 | 0.00 | 0.00 | 0.00 | 99 | 1013.8 |
| 20260509093413 | 74 | 230 | 0.0 | 0.0 | 0.00 | 0.00 | 0.00 | 99 | 1013.8 |
| 20260509092911 | 74 | 154 | 0.0 | 0.0 | 0.00 | 0.00 | 0.00 | 99 | 1013.6 |
| 20260509092409 | 74 | 154 | 0.0 | 0.0 | 0.00 | 0.00 | 0.00 | 99 | 1013.7 |
| 20260509091908 | 73 | 154 | 0.0 | 0.0 | 0.00 | 0.00 | 0.00 | 99 | 1013.3 |
| 20260509091404 | 73 | 154 | 0.0 | 1.0 | 0.00 | 0.00 | 0.00 | 99 | 1013.5 |
| 20260509090901 | 73 | 224 | 0.0 | 1.0 | 0.00 | 0.00 | 0.00 | 99 | 1013.5 |
| 20260509090358 | 73 | 173 | 0.0 | 1.0 | 0.00 | 0.00 | 0.00 | 99 | 1013.6 |
| 20260509085856 | 73 | 110 | 0.0 | 0.0 | 0.00 | 0.00 | 0.00 | 99 | 1013.6 |
| 20260509085353 | 73 | 235 | 0.0 | 0.0 | 0.00 | 0.00 | 0.00 | 99 | 1013.5 |
| 20260509084849 | 73 | 235 | 0.0 | 1.0 | 0.00 | 0.00 | 0.00 | 99 | 1013.5 |
| 20260509084346 | 73 | 202 | 0.0 | 0.0 | 0.00 | 0.00 | 0.00 | 99 | 1013.5 |
| 20260509083844 | 73 | 142 | 0.0 | 1.0 | 0.00 | 0.00 | 0.00 | 99 | 1013.6 |
| 20260509083340 | 73 | 154 | 0.0 | 0.0 | 0.00 | 0.00 | 0.00 | 99 | 1013.8 |
| 20260509082837 | 73 | 154 | 0.0 | 0.0 | 0.00 | 0.00 | 0.00 | 99 | 1013.7 |
| 20260509082334 | 73 | 154 | 0.0 | 0.0 | 0.00 | 0.00 | 0.00 | 99 | 1013.5 |
| 20260509081831 | 73 | 164 | 0.0 | 0.0 | 0.00 | 0.00 | 0.00 | 99 | 1013.8 |
| 20260509081328 | 73 | 147 | 0.0 | 1.0 | 0.00 | 0.00 | 0.00 | 99 | 1013.7 |
| 20260509080826 | 73 | 117 | 0.0 | 0.0 | 0.00 | 0.00 | 0.00 | 99 | 1013.7 |
| 20260509080324 | 73 | 117 | 0.0 | 0.0 | 0.00 | 0.00 | 0.00 | 99 | 1013.7 |
| 20260509075822 | 73 | 130 | 0.0 | 1.0 | 0.00 | 0.00 | 0.00 | 99 | 1013.7 |
| 20260509075319 | 73 | 193 | 0.0 | 1.0 | 0.00 | 0.00 | 0.00 | 99 | 1014.1 |
| 20260509074816 | 73 | 166 | 0.0 | 0.0 | 0.00 | 0.00 | 0.00 | 99 | 1014.3 |
| 20260509074313 | 73 | 117 | 0.0 | 0.0 | 0.00 | 0.00 | 0.00 | 99 | 1014.2 |
| 20260509073809 | 73 | 117 | 0.0 | 0.0 | 0.00 | 0.00 | 0.00 | 99 | 1014.2 |
| 20260509073306 | 73 | 117 | 0.0 | 0.0 | 0.00 | 0.00 | 0.00 | 99 | 1014.1 |
| 20260509072802 | 73 | 117 | 0.0 | 1.0 | 0.00 | 0.00 | 0.00 | 99 | 1014.3 |
| 20260509072259 | 73 | 142 | 0.0 | 1.0 | 0.00 | 0.00 | 0.00 | 99 | 1014.2 |
| 20260509071755 | 73 | 117 | 0.0 | 0.0 | 0.00 | 0.00 | 0.00 | 99 | 1014.2 |
| 20260509071253 | 73 | 50 | 0.0 | 0.0 | 0.00 | 0.00 | 0.00 | 99 | 1014.2 |
| 20260509070750 | 73 | 257 | 0.0 | 0.0 | 0.00 | 0.00 | 0.00 | 99 | 1014.2 |
| 20260509070246 | 73 | 257 | 0.0 | 1.0 | 0.00 | 0.00 | 0.00 | 99 | 1014.5 |
| 20260509065743 | 73 | 154 | 0.0 | 1.0 | 0.00 | 0.00 | 0.00 | 99 | 1014.1 |
| 20260509065239 | 73 | 217 | 0.0 | 1.0 | 0.00 | 0.00 | 0.00 | 99 | 1014.2 |
| 20260509064735 | 73 | 126 | 0.0 | 0.0 | 0.00 | 0.00 | 0.00 | 99 | 1014.0 |
| 20260509064233 | 73 | 126 | 0.0 | 1.0 | 0.00 | 0.00 | 0.00 | 99 | 1014.0 |
| 20260509063730 | 73 | 147 | 0.0 | 2.0 | 0.00 | 0.00 | 0.00 | 99 | 1013.9 |
| 20260509063226 | 73 | 154 | 0.0 | 1.0 | 0.00 | 0.00 | 0.00 | 99 | 1014.3 |
| 20260509062724 | 74 | 142 | 0.0 | 1.0 | 0.00 | 0.00 | 0.00 | 99 | 1014.3 |
| 20260509062221 | 74 | 269 | 0.0 | 0.0 | 0.00 | 0.00 | 0.00 | 99 | 1014.7 |
| 20260509061718 | 74 | 269 | 0.0 | 0.0 | 0.00 | 0.00 | 0.00 | 99 | 1014.5 |
| 20260509061215 | 74 | 166 | 0.0 | 0.0 | 0.00 | 0.00 | 0.00 | 99 | 1014.3 |
| 20260509060713 | 74 | 166 | 0.0 | 1.0 | 0.00 | 0.00 | 0.00 | 99 | 1014.3 |
| 20260509060209 | 74 | 142 | 0.0 | 2.0 | 0.00 | 0.00 | 0.00 | 99 | 1014.3 |
| 20260509055705 | 74 | 130 | 0.0 | 0.0 | 0.00 | 0.00 | 0.00 | 99 | 1014.3 |
| 20260509055201 | 75 | 120 | 1.0 | 2.0 | 0.00 | 0.00 | 0.00 | 99 | 1014.2 |
| 20260509054657 | 75 | 154 | 0.0 | 1.0 | 0.00 | 0.00 | 0.00 | 99 | 1014.5 |
| 20260509054155 | 75 | 206 | 1.0 | 4.0 | 0.00 | 0.00 | 0.00 | 99 | 1014.5 |
| 20260509053653 | 75 | 147 | 2.0 | 2.0 | 0.00 | 0.00 | 0.00 | 99 | 1014.6 |
| 20260509053149 | 75 | 122 | 4.0 | 4.0 | 0.00 | 0.00 | 0.00 | 99 | 1014.7 |
| 20260509052647 | 75 | 155 | 2.0 | 5.0 | 0.00 | 0.00 | 0.00 | 99 | 1014.8 |
| 20260509052145 | 75 | 171 | 0.0 | 3.0 | 0.00 | 0.00 | 0.00 | 99 | 1014.6 |
| 20260509051643 | 75 | 230 | 0.0 | 2.0 | 0.00 | 0.00 | 0.00 | 99 | 1014.5 |
| 20260509051139 | 75 | 141 | 2.0 | 3.0 | 0.00 | 0.00 | 0.00 | 99 | 1014.7 |
| 20260509050637 | 75 | 129 | 1.0 | 3.0 | 0.00 | 0.00 | 0.00 | 99 | 1014.8 |
| 20260509050133 | 75 | 192 | 1.0 | 3.0 | 0.00 | 0.00 | 0.00 | 99 | 1014.7 |
| 20260509045631 | 75 | 150 | 2.0 | 2.0 | 0.00 | 0.03 | 0.03 | 99 | 1014.6 |
| 20260509045128 | 75 | 82 | 0.0 | 4.0 | 0.00 | 0.03 | 0.03 | 99 | 1014.8 |
| 20260509044625 | 75 | 145 | 0.0 | 4.0 | 0.00 | 0.03 | 0.03 | 99 | 1014.9 |
| 20260509044122 | 75 | 155 | 1.0 | 3.0 | 0.00 | 0.03 | 0.03 | 99 | 1014.7 |
| 20260509043618 | 75 | 134 | 2.0 | 2.0 | 0.00 | 0.03 | 0.03 | 99 | 1014.7 |
| 20260509043114 | 75 | 149 | 1.0 | 3.0 | 0.00 | 0.03 | 0.03 | 99 | 1014.8 |
| 20260509042611 | 75 | 158 | 0.0 | 5.0 | 0.00 | 0.03 | 0.03 | 99 | 1014.7 |
| 20260509042106 | 75 | 162 | 2.0 | 3.0 | 0.00 | 0.03 | 0.03 | 99 | 1015.0 |
| 20260509041604 | 75 | 127 | 3.0 | 5.0 | 0.00 | 0.03 | 0.03 | 99 | 1014.8 |
| 20260509041101 | 75 | 198 | 1.0 | 8.0 | 0.00 | 0.03 | 0.03 | 99 | 1014.7 |
| 20260509040559 | 75 | 258 | 2.0 | 4.0 | 0.00 | 0.03 | 0.03 | 99 | 1014.7 |
| 20260509040056 | 75 | 156 | 1.0 | 2.0 | 0.00 | 0.03 | 0.03 | 99 | 1014.7 |
| 20260509035553 | 75 | 129 | 0.0 | 2.0 | 0.00 | 0.03 | 0.03 | 99 | 1014.5 |
| 20260509035049 | 75 | 114 | 3.0 | 6.0 | 0.00 | 0.03 | 0.03 | 99 | 1014.3 |
| 20260509034548 | 75 | 138 | 2.0 | 5.0 | 0.00 | 0.03 | 0.03 | 99 | 1014.1 |
| 20260509034044 | 75 | 152 | 1.0 | 3.0 | 0.00 | 0.03 | 0.03 | 99 | 1014.3 |
| 20260509033541 | 75 | 111 | 0.0 | 4.0 | 0.00 | 0.03 | 0.03 | 99 | 1014.5 |
| 20260509033039 | 75 | 129 | 0.0 | 5.0 | 0.00 | 0.03 | 0.03 | 99 | 1014.4 |
| 20260509032536 | 75 | 179 | 0.0 | 5.0 | 0.00 | 0.03 | 0.03 | 99 | 1014.3 |
| 20260509032033 | 75 | 129 | 1.0 | 3.0 | 0.00 | 0.03 | 0.03 | 99 | 1014.3 |
| 20260509031530 | 75 | 122 | 1.0 | 4.0 | 0.00 | 0.03 | 0.03 | 99 | 1014.4 |
| 20260509031027 | 75 | 102 | 0.0 | 2.0 | 0.00 | 0.03 | 0.03 | 99 | 1014.3 |
| 20260509030525 | 75 | 113 | 2.0 | 3.0 | 0.00 | 0.03 | 0.03 | 99 | 1014.3 |
| 20260509030021 | 75 | 61 | 0.0 | 3.0 | 0.00 | 0.03 | 0.03 | 99 | 1014.3 |
| 20260509025518 | 75 | 142 | 3.0 | 4.0 | 0.00 | 0.03 | 0.03 | 99 | 1014.1 |
| 20260509025014 | 75 | 117 | 3.0 | 5.0 | 0.00 | 0.03 | 0.03 | 99 | 1014.1 |
| 20260509024509 | 75 | 124 | 0.0 | 2.0 | 0.00 | 0.03 | 0.03 | 99 | 1014.2 |
| 20260509024006 | 75 | 127 | 2.0 | 7.0 | 0.00 | 0.03 | 0.03 | 99 | 1013.6 |
| 20260509023504 | 75 | 124 | 1.0 | 5.0 | 0.00 | 0.03 | 0.03 | 99 | 1013.8 |
| 20260509023000 | 75 | 141 | 1.0 | 5.0 | 0.00 | 0.03 | 0.03 | 99 | 1013.9 |
| 20260509022457 | 75 | 227 | 2.0 | 6.0 | 0.00 | 0.03 | 0.03 | 99 | 1013.9 |
| 20260509021954 | 75 | 145 | 2.0 | 5.0 | 0.00 | 0.03 | 0.03 | 99 | 1013.7 |
| 20260509021451 | 75 | 202 | 1.0 | 3.0 | 0.00 | 0.03 | 0.03 | 99 | 1014.0 |
| 20260509020949 | 75 | 140 | 2.0 | 5.0 | 0.00 | 0.03 | 0.03 | 99 | 1013.9 |
| 20260509020447 | 75 | 143 | 1.0 | 3.0 | 0.00 | 0.03 | 0.03 | 99 | 1013.8 |
| 20260509015943 | 75 | 121 | 2.0 | 3.0 | 0.00 | 0.03 | 0.03 | 99 | 1013.7 |
| 20260509015443 | 74 | 112 | 3.0 | 5.0 | 0.00 | 0.03 | 0.03 | 99 | 1013.6 |
| 20260509014938 | 74 | 170 | 2.0 | 7.0 | 0.00 | 0.03 | 0.03 | 99 | 1013.4 |
| 20260509014435 | 74 | 112 | 2.0 | 5.0 | 0.00 | 0.03 | 0.03 | 99 | 1013.3 |
| 20260509013931 | 74 | 78 | 2.0 | 5.0 | 0.00 | 0.03 | 0.03 | 99 | 1013.4 |
| 20260509013429 | 74 | 117 | 2.0 | 4.0 | 0.00 | 0.03 | 0.03 | 99 | 1013.5 |
| 20260509012924 | 74 | 103 | 0.0 | 5.0 | 0.00 | 0.03 | 0.03 | 99 | 1013.6 |
| 20260509012421 | 74 | 109 | 7.0 | 7.0 | 0.00 | 0.03 | 0.03 | 99 | 1013.7 |
| 20260509011918 | 74 | 164 | 2.0 | 5.0 | 0.00 | 0.03 | 0.03 | 99 | 1013.4 |
| 20260509011415 | 74 | 143 | 5.0 | 8.0 | 0.00 | 0.03 | 0.03 | 99 | 1013.4 |
| 20260509010913 | 74 | 133 | 1.0 | 3.0 | 0.00 | 0.03 | 0.03 | 99 | 1013.8 |
| 20260509010411 | 74 | 164 | 2.0 | 4.0 | 0.00 | 0.03 | 0.03 | 99 | 1013.8 |
| 20260509005907 | 74 | 146 | 2.0 | 5.0 | 0.00 | 0.03 | 0.03 | 99 | 1013.4 |
| 20260509005406 | 74 | 125 | 0.0 | 3.0 | 0.00 | 0.03 | 0.03 | 99 | 1013.5 |
| 20260509004906 | 74 | 167 | 1.0 | 7.0 | 0.00 | 0.03 | 0.03 | 99 | 1013.5 |
| 20260509004402 | 74 | 170 | 2.0 | 10.0 | 0.00 | 0.03 | 0.03 | 99 | 1013.1 |
| 20260509003859 | 74 | 146 | 3.0 | 7.0 | 0.00 | 0.03 | 0.03 | 98 | 1013.5 |
| 20260509002911 | 74 | 224 | 0.0 | 2.0 | 0.00 | 0.03 | 0.03 | 98 | 1013.7 |
| 20260509002410 | 74 | 224 | 0.0 | 2.0 | 0.00 | 0.03 | 0.03 | 98 | 1013.7 |
| 20260509001907 | 74 | 111 | 0.0 | 3.0 | 0.00 | 0.03 | 0.03 | 98 | 1013.6 |
| 20260509001403 | 74 | 109 | 0.0 | 6.0 | 0.00 | 0.03 | 0.03 | 98 | 1013.2 |
| 20260509000900 | 74 | 110 | 0.0 | 5.0 | 0.00 | 0.03 | 0.03 | 98 | 1013.0 |
| 20260509000358 | 74 | 132 | 3.0 | 8.0 | 0.00 | 0.03 | 0.03 | 98 | 1013.2 |
| 20260508235853 | 74 | 157 | 0.0 | 3.0 | 0.00 | 0.03 | 0.03 | 98 | 1013.5 |
| 20260508235351 | 74 | 152 | 2.0 | 5.0 | 0.00 | 0.03 | 0.03 | 98 | 1013.7 |
| 20260508234848 | 74 | 107 | 1.0 | 5.0 | 0.00 | 0.03 | 0.03 | 97 | 1013.8 |
| 20260508234344 | 75 | 149 | 2.0 | 5.0 | 0.00 | 0.03 | 0.03 | 97 | 1014.1 |
| 20260508233843 | 74 | 104 | 1.0 | 6.0 | 0.00 | 0.03 | 0.03 | 97 | 1013.9 |
| 20260508233342 | 75 | 113 | 2.0 | 3.0 | 0.00 | 0.03 | 0.03 | 97 | 1014.0 |
| 20260508232838 | 74 | 118 | 2.0 | 6.0 | 0.00 | 0.03 | 0.03 | 97 | 1013.8 |
| 20260508232334 | 75 | 103 | 0.0 | 4.0 | 0.00 | 0.03 | 0.03 | 97 | 1013.9 |
| 20260508231833 | 74 | 208 | 2.0 | 7.0 | 0.00 | 0.03 | 0.03 | 97 | 1013.5 |
| 20260508231329 | 75 | 148 | 3.0 | 5.0 | 0.00 | 0.03 | 0.03 | 97 | 1013.9 |
| 20260508230826 | 75 | 97 | 2.0 | 6.0 | 0.00 | 0.03 | 0.03 | 97 | 1013.8 |
| 20260508230322 | 75 | 137 | 2.0 | 9.0 | 0.00 | 0.03 | 0.03 | 96 | 1013.4 |
| 20260508225820 | 75 | 123 | 3.0 | 6.0 | 0.00 | 0.03 | 0.03 | 96 | 1013.6 |
| 20260508225316 | 75 | 113 | 1.0 | 8.0 | 0.00 | 0.03 | 0.03 | 96 | 1013.6 |
| 20260508224815 | 75 | 143 | 4.0 | 7.0 | 0.00 | 0.03 | 0.03 | 95 | 1013.4 |
| 20260508224312 | 76 | 205 | 2.0 | 6.0 | 0.00 | 0.03 | 0.03 | 95 | 1013.5 |
| 20260508223809 | 75 | 316 | 1.0 | 7.0 | 0.00 | 0.03 | 0.03 | 95 | 1013.3 |
| 20260508223306 | 75 | 164 | 1.0 | 6.0 | 0.00 | 0.03 | 0.03 | 95 | 1013.5 |
| 20260508222804 | 75 | 145 | 1.0 | 5.0 | 0.00 | 0.03 | 0.03 | 95 | 1013.6 |
| 20260508222301 | 75 | 169 | 3.0 | 6.0 | 0.00 | 0.03 | 0.03 | 95 | 1013.7 |
| 20260508221757 | 75 | 193 | 1.0 | 3.0 | 0.00 | 0.03 | 0.03 | 95 | 1013.8 |
| 20260508221253 | 75 | 148 | 2.0 | 7.0 | 0.00 | 0.03 | 0.03 | 95 | 1013.7 |
| 20260508220750 | 75 | 157 | 2.0 | 3.0 | 0.00 | 0.03 | 0.03 | 95 | 1014.0 |
| 20260508220247 | 74 | 147 | 3.0 | 5.0 | 0.00 | 0.03 | 0.03 | 95 | 1013.9 |
| 20260508215742 | 74 | 156 | 3.0 | 5.0 | 0.00 | 0.03 | 0.03 | 95 | 1013.9 |
| 20260508215239 | 74 | 139 | 1.0 | 6.0 | 0.00 | 0.03 | 0.03 | 95 | 1013.9 |
| 20260508214737 | 74 | 168 | 1.0 | 3.0 | 0.00 | 0.03 | 0.03 | 95 | 1014.3 |
| 20260508214234 | 74 | 136 | 2.0 | 3.0 | 0.00 | 0.03 | 0.03 | 95 | 1014.4 |
| 20260508213730 | 74 | 178 | 1.0 | 5.0 | 0.00 | 0.03 | 0.03 | 95 | 1014.3 |
| 20260508213227 | 74 | 128 | 1.0 | 7.0 | 0.00 | 0.03 | 0.03 | 96 | 1013.9 |
| 20260508212723 | 74 | 134 | 3.0 | 7.0 | 0.00 | 0.03 | 0.03 | 95 | 1014.2 |
| 20260508212220 | 74 | 146 | 3.0 | 10.0 | 0.00 | 0.03 | 0.03 | 95 | 1014.2 |
| 20260508211715 | 73 | 117 | 4.0 | 11.0 | 0.00 | 0.03 | 0.03 | 95 | 1014.0 |
| 20260508211211 | 74 | 139 | 2.0 | 3.0 | 0.00 | 0.03 | 0.03 | 96 | 1014.2 |
| 20260508210709 | 74 | 134 | 3.0 | 7.0 | 0.00 | 0.03 | 0.03 | 95 | 1014.1 |
| 20260508210206 | 74 | 135 | 3.0 | 5.0 | 0.00 | 0.03 | 0.03 | 96 | 1014.1 |
| 20260508205703 | 73 | 164 | 2.0 | 12.0 | 0.00 | 0.03 | 0.03 | 95 | 1014.2 |
| 20260508205159 | 74 | 164 | 2.0 | 6.0 | 0.00 | 0.03 | 0.03 | 95 | 1014.1 |
| 20260508204655 | 74 | 167 | 0.0 | 5.0 | 0.00 | 0.03 | 0.03 | 95 | 1014.1 |
| 20260508204151 | 74 | 68 | 1.0 | 8.0 | 0.00 | 0.03 | 0.03 | 95 | 1014.2 |
| 20260508203648 | 74 | 148 | 2.0 | 7.0 | 0.00 | 0.03 | 0.03 | 95 | 1014.2 |
| 20260508203144 | 74 | 52 | 0.0 | 6.0 | 0.00 | 0.03 | 0.03 | 95 | 1014.4 |
| 20260508202640 | 74 | 137 | 3.0 | 4.0 | 0.00 | 0.03 | 0.03 | 96 | 1014.6 |
| 20260508202138 | 74 | 156 | 2.0 | 4.0 | 0.00 | 0.03 | 0.03 | 96 | 1014.8 |
| 20260508201634 | 74 | 84 | 0.0 | 5.0 | 0.00 | 0.03 | 0.03 | 95 | 1014.9 |
| 20260508201131 | 74 | 209 | 0.0 | 2.0 | 0.00 | 0.03 | 0.03 | 96 | 1014.6 |
| 20260508200628 | 74 | 129 | 4.0 | 6.0 | 0.00 | 0.03 | 0.03 | 95 | 1014.8 |
| 20260508200124 | 75 | 123 | 1.0 | 4.0 | 0.00 | 0.03 | 0.03 | 96 | 1015.0 |
| 20260508195621 | 73 | 111 | 0.0 | 6.0 | 0.00 | 0.03 | 0.03 | 96 | 1014.9 |
| 20260508195117 | 73 | 102 | 0.0 | 2.0 | 0.00 | 0.03 | 0.03 | 96 | 1015.1 |
| 20260508194614 | 73 | 129 | 0.0 | 4.0 | 0.00 | 0.03 | 0.03 | 97 | 1015.1 |
| 20260508194111 | 73 | 62 | 0.0 | 3.0 | 0.00 | 0.03 | 0.03 | 97 | 1015.0 |
| 20260508193608 | 73 | 175 | 3.0 | 5.0 | 0.00 | 0.03 | 0.03 | 96 | 1015.1 |
| 20260508193104 | 73 | 141 | 0.0 | 2.0 | 0.00 | 0.03 | 0.03 | 97 | 1014.9 |
| 20260508192601 | 72 | 176 | 2.0 | 5.0 | 0.00 | 0.03 | 0.03 | 98 | 1014.9 |
| 20260508192058 | 72 | 129 | 2.0 | 5.0 | 0.00 | 0.03 | 0.03 | 98 | 1014.9 |
| 20260508191554 | 71 | 106 | 2.0 | 8.0 | 0.00 | 0.03 | 0.03 | 98 | 1014.9 |
| 20260508191051 | 71 | 171 | 2.0 | 9.0 | 0.00 | 0.03 | 0.03 | 99 | 1015.1 |
| 20260508190549 | 71 | 123 | 4.0 | 8.0 | 0.00 | 0.03 | 0.03 | 99 | 1014.9 |
| 20260508190045 | 70 | 132 | 12.0 | 13.0 | 0.00 | 0.03 | 0.03 | 99 | 1014.9 |
| 20260508185542 | 70 | 146 | 0.0 | 6.0 | 0.00 | 0.03 | 0.03 | 99 | 1015.1 |
| 20260508185040 | 69 | 148 | 0.0 | 7.0 | 0.00 | 0.03 | 0.03 | 99 | 1015.2 |
| 20260508184537 | 70 | 161 | 2.0 | 3.0 | 0.00 | 0.03 | 0.03 | 99 | 1015.2 |
| 20260508184034 | 69 | 148 | 2.0 | 4.0 | 0.00 | 0.03 | 0.03 | 99 | 1015.6 |
| 20260508183530 | 69 | 89 | 3.0 | 5.0 | 0.00 | 0.03 | 0.03 | 99 | 1015.8 |
| 20260508183026 | 68 | 125 | 2.0 | 4.0 | 0.00 | 0.03 | 0.03 | 99 | 1015.8 |
| 20260508182523 | 68 | 140 | 2.0 | 4.0 | 0.00 | 0.03 | 0.03 | 99 | 1015.9 |
| 20260508182019 | 68 | 160 | 0.0 | 4.0 | 0.00 | 0.03 | 0.03 | 99 | 1016.0 |
| 20260508181515 | 68 | 204 | 1.0 | 4.0 | 0.00 | 0.03 | 0.03 | 99 | 1016.2 |
| 20260508181013 | 68 | 143 | 0.0 | 3.0 | 0.00 | 0.03 | 0.03 | 99 | 1016.0 |
| 20260508180509 | 68 | 213 | 1.0 | 3.0 | 0.00 | 0.03 | 0.03 | 99 | 1016.2 |
| 20260508180005 | 68 | 160 | 1.0 | 5.0 | 0.00 | 0.03 | 0.03 | 99 | 1016.2 |
| 20260508175502 | 68 | 77 | 0.0 | 1.0 | 0.00 | 0.03 | 0.03 | 99 | 1016.1 |
| 20260508174959 | 68 | 167 | 1.0 | 3.0 | 0.00 | 0.03 | 0.03 | 99 | 1016.1 |
| 20260508174457 | 68 | 147 | 3.0 | 5.0 | 0.00 | 0.03 | 0.03 | 99 | 1016.4 |
| 20260508173954 | 68 | 106 | 1.0 | 2.0 | 0.00 | 0.03 | 0.03 | 99 | 1016.2 |
| 20260508173451 | 68 | 148 | 2.0 | 6.0 | 0.00 | 0.03 | 0.03 | 99 | 1016.3 |
| 20260508172946 | 68 | 260 | 0.0 | 3.0 | 0.00 | 0.03 | 0.03 | 99 | 1016.2 |
| 20260508172444 | 68 | 182 | 0.0 | 3.0 | 0.00 | 0.03 | 0.03 | 99 | 1016.1 |
| 20260508171940 | 69 | 147 | 0.0 | 8.0 | 0.02 | 0.03 | 0.03 | 99 | 1016.0 |
| 20260508171437 | 68 | 129 | 3.0 | 10.0 | 0.00 | 0.03 | 0.03 | 99 | 1015.8 |
| 20260508170933 | 69 | 122 | 5.0 | 9.0 | 0.02 | 0.03 | 0.03 | 99 | 1016.1 |
| 20260508170431 | 69 | 155 | 1.0 | 6.0 | 0.02 | 0.03 | 0.03 | 99 | 1016.4 |
| 20260508165927 | 69 | 122 | 1.0 | 4.0 | 0.00 | 0.02 | 0.02 | 99 | 1016.6 |
| 20260508165426 | 69 | 135 | 0.0 | 3.0 | 0.00 | 0.02 | 0.02 | 99 | 1016.9 |
| 20260508164921 | 69 | 135 | 0.0 | 3.0 | 0.00 | 0.02 | 0.02 | 99 | 1017.0 |
| 20260508164418 | 69 | 159 | 2.0 | 4.0 | 0.00 | 0.02 | 0.02 | 99 | 1016.9 |
| 20260508163915 | 69 | 154 | 3.0 | 5.0 | 0.00 | 0.02 | 0.02 | 99 | 1016.8 |
| 20260508163413 | 69 | 120 | 0.0 | 5.0 | 0.02 | 0.02 | 0.02 | 98 | 1017.0 |
| 20260508162908 | 69 | 123 | 1.0 | 2.0 | 0.02 | 0.02 | 0.02 | 98 | 1017.2 |
| 20260508162406 | 69 | 119 | 0.0 | 5.0 | 0.00 | 0.02 | 0.02 | 97 | 1017.5 |
| 20260508161903 | 69 | 133 | 3.0 | 5.0 | 0.00 | 0.02 | 0.02 | 97 | 1017.2 |
| 20260508161400 | 69 | 235 | 0.0 | 2.0 | 0.00 | 0.02 | 0.02 | 97 | 1017.4 |
| 20260508160857 | 69 | 159 | 1.0 | 4.0 | 0.00 | 0.02 | 0.02 | 97 | 1017.3 |
| 20260508160356 | 69 | 119 | 1.0 | 4.0 | 0.00 | 0.02 | 0.02 | 97 | 1017.3 |
| 20260508155852 | 69 | 154 | 3.0 | 6.0 | 0.00 | 0.02 | 0.02 | 97 | 1017.1 |
| 20260508155349 | 69 | 142 | 2.0 | 6.0 | 0.00 | 0.02 | 0.02 | 98 | 1017.1 |
| 20260508154846 | 68 | 27 | 0.0 | 8.0 | 0.00 | 0.02 | 0.02 | 98 | 1017.5 |
| 20260508154344 | 68 | 143 | 0.0 | 4.0 | 0.00 | 0.02 | 0.02 | 98 | 1017.7 |
| 20260508153840 | 68 | 160 | 0.0 | 5.0 | 0.00 | 0.02 | 0.02 | 98 | 1017.9 |
| 20260508153337 | 68 | 196 | 3.0 | 7.0 | 0.00 | 0.02 | 0.02 | 99 | 1017.4 |
| 20260508152833 | 68 | 24 | 2.0 | 4.0 | 0.00 | 0.02 | 0.02 | 99 | 1017.5 |
| 20260508152330 | 68 | 100 | 1.0 | 3.0 | 0.00 | 0.02 | 0.02 | 99 | 1017.0 |
| 20260508151826 | 68 | 89 | 0.0 | 4.0 | 0.00 | 0.02 | 0.02 | 99 | 1017.3 |
| 20260508151323 | 68 | 117 | 0.0 | 3.0 | 0.00 | 0.02 | 0.02 | 99 | 1017.2 |
| 20260508150819 | 67 | 113 | 0.0 | 5.0 | 0.00 | 0.02 | 0.02 | 99 | 1017.0 |
| 20260508150316 | 67 | 130 | 0.0 | 3.0 | 0.00 | 0.02 | 0.02 | 99 | 1017.1 |
| 20260508145813 | 68 | 150 | 3.0 | 7.0 | 0.00 | 0.02 | 0.02 | 99 | 1017.2 |
| 20260508145309 | 68 | 202 | 0.0 | 2.0 | 0.00 | 0.02 | 0.02 | 99 | 1017.3 |
| 20260508144806 | 68 | 148 | 0.0 | 2.0 | 0.02 | 0.02 | 0.02 | 99 | 1017.5 |
| 20260508144304 | 68 | 143 | 2.0 | 3.0 | 0.02 | 0.02 | 0.02 | 99 | 1017.4 |
| 20260508143801 | 68 | 98 | 1.0 | 6.0 | 0.00 | 0.02 | 0.02 | 99 | 1017.6 |
| 20260508143258 | 68 | 91 | 2.0 | 3.0 | 0.00 | 0.02 | 0.02 | 99 | 1017.6 |
| 20260508142754 | 68 | 104 | 2.0 | 3.0 | 0.02 | 0.02 | 0.02 | 99 | 1017.6 |
| 20260508142251 | 68 | 89 | 0.0 | 3.0 | 0.02 | 0.02 | 0.02 | 99 | 1017.6 |
| 20260508141748 | 68 | 14 | 0.0 | 2.0 | 0.00 | 0.01 | 0.01 | 99 | 1017.7 |
| 20260508141245 | 68 | 339 | 1.0 | 3.0 | 0.00 | 0.01 | 0.01 | 99 | 1017.8 |
| 20260508140742 | 68 | 137 | 0.0 | 4.0 | 0.00 | 0.01 | 0.01 | 99 | 1017.2 |
| 20260508140239 | 68 | 133 | 0.0 | 2.0 | 0.00 | 0.01 | 0.01 | 99 | 1017.1 |
| 20260508135735 | 68 | 135 | 0.0 | 2.0 | 0.00 | 0.01 | 0.01 | 99 | 1017.2 |
| 20260508135231 | 68 | 122 | 0.0 | 2.0 | 0.00 | 0.01 | 0.01 | 99 | 1017.3 |
| 20260508134727 | 68 | 140 | 0.0 | 4.0 | 0.00 | 0.01 | 0.01 | 99 | 1017.4 |
| 20260508134225 | 68 | 89 | 0.0 | 2.0 | 0.00 | 0.01 | 0.01 | 99 | 1017.4 |
| 20260508133721 | 68 | 124 | 0.0 | 2.0 | 0.00 | 0.01 | 0.01 | 99 | 1017.3 |
| 20260508133219 | 68 | 119 | 0.0 | 2.0 | 0.00 | 0.01 | 0.01 | 99 | 1017.4 |
| 20260508132716 | 68 | 147 | 0.0 | 2.0 | 0.00 | 0.01 | 0.01 | 99 | 1017.5 |
| 20260508132214 | 68 | 66 | 0.0 | 3.0 | 0.00 | 0.01 | 0.01 | 99 | 1017.7 |
| 20260508131709 | 68 | 116 | 3.0 | 5.0 | 0.00 | 0.01 | 0.01 | 99 | 1017.2 |
| 20260508131206 | 67 | 135 | 2.0 | 4.0 | 0.00 | 0.01 | 0.01 | 99 | 1017.4 |
| 20260508130702 | 67 | 55 | 0.0 | 3.0 | 0.00 | 0.01 | 0.01 | 99 | 1017.4 |
| 20260508130200 | 67 | 122 | 0.0 | 2.0 | 0.00 | 0.01 | 0.01 | 99 | 1017.3 |
| 20260508125655 | 67 | 148 | 2.0 | 5.0 | 0.00 | 0.01 | 0.01 | 99 | 1017.1 |
| 20260508125152 | 67 | 164 | 1.0 | 3.0 | 0.00 | 0.01 | 0.01 | 99 | 1017.1 |
| 20260508124650 | 67 | 110 | 1.0 | 4.0 | 0.00 | 0.01 | 0.01 | 99 | 1017.3 |
| 20260508124147 | 67 | 125 | 0.0 | 4.0 | 0.00 | 0.01 | 0.01 | 99 | 1017.4 |
| 20260508123645 | 67 | 96 | 0.0 | 2.0 | 0.00 | 0.01 | 0.01 | 99 | 1017.5 |
| 20260508123142 | 67 | 195 | 2.0 | 3.0 | 0.00 | 0.01 | 0.01 | 99 | 1017.4 |
| 20260508122638 | 67 | 112 | 2.0 | 5.0 | 0.00 | 0.01 | 0.01 | 99 | 1017.6 |
| 20260508122135 | 67 | 100 | 2.0 | 5.0 | 0.00 | 0.01 | 0.01 | 99 | 1017.2 |
| 20260508121634 | 67 | 119 | 0.0 | 6.0 | 0.00 | 0.01 | 0.01 | 99 | 1017.4 |